SBIRS GEO-2 (USA 241)

Last updated on Wed Sep 09 2026 00:03:00 GMT+0000 (Coordinated Universal Time)

1 39120U 13011A 26251.47475012 -.00000114 00000+0 00000+0 0 9992 2 39120 4.6675 52.4590 0001701 134.7402 240.4221 0.99674183 49375
UTC large
Height (km)
Speed (km/s)
/
Latitude / Longitude
Inclination (degrees)
Orbital Period (minutes)
Azimuth
Elevation
Range (km)
Doppler Factor

Next 0 passes for location: London (51.5072 / 0.1276)

No passes found over London.
SBIRS GEO-2 (USA 241)